Starlink 33893

operational
NORAD ID: 64253 Int'l Des: 2025-119 Owner: SPXS Country: US Constellation: starlink
LEOCIRCULAR

Starlink 33893について

説明を読み込み中...

リアルタイム位置

3D地球を読み込み中...

次回通過

高度履歴

Altitude vs Time

uPlot chart will show altitude changes over time

軌道要素

1 64253U 25119W 25353.43833810 .00015356 00000-0 56628-3 0 9996
2 64253 43.0001 40.4671 0000529 263.5569 96.5222 15.27585317 31895
Epoch: Dec 19, 2025 • Age: 11 hours

現在のステータス

高度 493.9 km
速度 7.62 km/s
衛星直下点 -37.99°S, 65.54°W
打ち上げ日 Jun 3, 2025
運用期間 0.5 years
タイプ internet

技術仕様

分類 Payload
質量 575.00 kg
乾燥質量 530.00 kg
総質量 575.00 kg
長さ 0.30 m
直径 4.10 m
スパン 29.00 m
形状 Box + pan
製造者 SPXS
バスタイプ Starlink V2MO
フェーズステータス In Orbit
所有者/国 SPXS/US

大規模コンステレーション

Loading constellations...